Wind_Speed
8 8 7 7 7 7 8 8 9 9 8 7 7 9 10 11 11 11 12 12 11 6 2 2 3 2 2 2 4 6 6 15 25 29 23 18 25 24 19 18 18 22 20 14 11 6 3 5 6 8 4 2 4 2 3 3 3 4 3 1 2 2 3 5 6 6 3 2 3 2 1 5 2 1 4 3 8 5 5 6 4 7 9 9 12 15 15 14
6 6 6 6 6 7 7 8 8 7 7 7 8 9 10 11 10 10 10 11 10 8 3 2 1 3 4 4 4 5 3 8 22 24 23 25 26 19 15 16 18 22 19 11 9 7 4 4 6 7 5 2 3 3 2 3 3 3 3 1 3 5 5 5 6 5 3 2 2 1 0 3 4 4 4 1 1 3 6 5 4 7 8 9 13 16 16 17
5 5 6 6 6 7 7 8 7 6 7 7 8 9 10 10 10 11 12 12 10 9 7 3 1 3 5 6 6 4 3 6 15 16 25 29 23 17 14 17 20 22 17 8 6 6 3 1 3 6 4 2 2 3 3 3 2 2 2 1 5 5 4 4 5 5 3 2 1 0 1 0 2 3 3 3 4 2 4 4 3 6 6 6 8 13 16 18
5 6 6 6 6 7 7 7 6 6 7 8 8 9 9 9 10 12 14 15 12 10 10 9 6 4 4 6 5 3 1 6 8 12 26 29 21 16 14 18 21 20 13 8 7 6 5 4 6 6 4 2 4 3 3 3 2 1 2 3 5 2 2 4 3 5 2 3 2 1 2 2 2 1 2 6 4 3 5 6 6 10 11 9 6 10 15 17
6 6 6 6 6 7 7 6 6 6 7 7 8 9 9 9 10 12 14 16 13 8 10 13 14 15 13 7 1 3 1 5 6 16 27 28 20 16 14 17 20 18 13 9 7 7 7 6 7 7 4 3 5 5 2 2 2 0 2 4 4 1 1 5 2 2 1 4 4 3 1 1 1 0 3 7 5 4 5 5 7 12 12 11 9 10 13 15
6 6 6 6 6 7 7 6 6 6 6 7 8 8 8 9 10 10 12 15 15 7 8 10 10 16 20 17 12 6 5 3 9 19 27 27 18 14 13 15 18 19 17 14 10 8 7 7 7 5 3 3 3 3 2 3 2 1 4 2 1 3 2 4 3 2 1 4 2 2 3 2 2 2 3 6 4 4 3 4 11 13 13 15 14 12 10 10
6 6 6 6 7 7 6 6 5 5 5 6 7 7 8 9 9 9 10 13 16 11 5 7 5 3 7 10 15 16 9 1 13 20 26 25 15 12 11 12 16 18 19 19 13 7 6 8 6 4 4 3 0 0 3 4 4 2 3 4 1 4 3 4 3 2 1 2 3 3 2 2 2 3 2 3 1 4 4 12 17 16 17 17 13 10 9 10
7 7 6 7 7 6 6 5 5 4 5 6 6 7 7 8 9 9 10 12 16 15 9 3 3 3 3 3 6 11 7 6 18 23 25 20 10 11 10 10 15 16 18 18 11 4 4 6 3 3 3 2 2 1 3 3 4 3 1 4 2 2 4 5 3 3 2 3 3 3 2 3 5 3 3 2 3 6 10 15 16 15 15 13 11 9 9 11
7 7 6 7 6 6 5 4 4 4 4 5 6 6 6 6 7 7 8 9 14 19 18 15 9 3 2 2 6 7 6 12 19 22 23 16 8 9 9 11 15 14 14 14 11 7 3 2 2 3 2 2 2 1 3 2 1 1 2 2 2 4 5 4 4 6 5 2 2 2 3 5 3 2 2 4 5 7 11 13 12 13 11 10 9 8 10 12
7 6 6 6 6 5 5 4 4 4 4 5 5 5 5 5 5 6 6 6 9 12 15 19 19 18 12 5 7 7 10 16 19 20 18 11 6 6 9 13 13 11 10 11 13 9 3 2 4 4 5 2 2 1 1 2 1 1 2 2 1 5 5 3 4 6 5 0 1 1 5 6 2 1 1 3 4 8 13 11 9 11 10 8 8 9 13 14
6 6 6 5 5 5 5 4 4 4 5 5 5 5 5 5 6 5 4 4 5 5 7 8 10 18 21 12 9 7 12 17 20 20 16 10 7 8 11 12 10 9 8 9 12 9 3 3 5 5 2 1 1 2 2 1 1 1 2 2 1 6 5 5 6 6 5 2 0 3 4 5 3 2 0 3 5 8 13 11 9 10 9 9 9 9 12 13
6 6 5 6 6 6 6 5 5 5 5 5 5 5 5 5 4 3 3 4 4 5 5 7 8 6 10 13 9 7 14 18 21 20 18 13 8 9 11 9 9 9 6 7 8 8 6 3 6 6 1 1 1 2 0 2 2 1 4 1 5 10 6 5 5 6 4 1 1 2 2 4 2 5 2 6 6 8 12 10 9 9 8 9 9 8 9 11
5 6 6 7 7 7 6 5 5 5 4 4 4 5 5 5 3 2 2 3 3 5 4 6 11 7 6 6 6 13 18 20 23 20 19 17 9 8 10 9 9 9 7 8 7 8 8 5 9 8 1 3 0 2 2 4 4 2 5 3 4 9 4 2 3 6 3 1 4 2 3 4 1 6 3 6 7 10 11 8 8 8 7 8 7 7 7 10
6 7 8 9 8 7 6 6 6 5 4 3 4 4 5 5 4 3 4 5 2 4 5 4 6 8 9 3 2 17 21 21 27 24 23 22 13 9 9 9 11 12 10 9 8 8 6 5 11 8 2 4 1 2 4 6 5 2 4 3 4 5 5 5 5 6 4 1 6 6 3 5 2 6 4 4 6 11 12 8 7 7 7 7 6 7 6 8
8 9 9 9 7 7 7 8 8 7 5 2 3 3 4 5 6 8 9 9 7 3 3 6 4 5 7 2 2 16 23 25 29 28 25 22 18 14 9 6 10 13 14 13 10 10 9 7 9 6 3 3 3 5 4 5 5 4 4 4 4 2 6 9 5 2 2 3 6 7 4 6 3 6 7 3 6 9 11 8 7 8 8 7 5 6 5 5
9 9 8 7 6 6 7 9 11 13 13 10 7 4 3 4 5 8 7 8 12 9 5 6 6 5 6 1 6 13 19 22 25 28 25 19 17 16 12 6 4 4 7 12 14 13 14 11 6 3 3 5 6 5 4 4 5 3 3 3 5 4 6 7 4 1 1 3 6 5 3 6 3 7 9 2 7 9 11 8 8 8 8 7 5 5 5 4
7 7 7 6 6 6 8 11 13 17 21 23 22 16 12 8 3 2 3 2 6 8 9 9 6 5 6 5 6 9 13 18 23 29 29 20 13 16 16 8 4 6 2 7 18 16 12 9 3 2 4 5 4 4 6 6 5 4 3 2 4 4 4 6 5 3 5 3 5 2 2 4 6 8 9 2 8 9 9 8 8 8 6 5 5 4 5 5
6 7 7 7 6 7 9 11 11 13 16 20 24 23 22 22 18 13 8 2 1 3 7 12 9 5 4 8 6 9 14 16 22 29 31 23 12 15 19 10 6 10 4 5 14 12 7 5 3 3 4 5 5 6 6 3 4 4 5 4 5 4 3 5 6 3 6 4 4 3 1 4 8 8 8 5 6 9 8 7 7 6 5 5 5 5 5 5
5 6 7 7 7 7 7 6 6 8 8 7 9 9 10 15 21 28 27 16 6 4 3 6 7 4 1 6 9 14 13 10 18 26 31 28 15 12 17 12 6 9 7 4 7 7 4 4 5 4 5 6 5 3 3 1 4 6 7 3 6 8 5 7 7 4 3 4 4 2 1 3 7 7 7 6 5 8 7 6 5 4 5 4 4 5 5 6
5 6 7 8 7 5 4 2 1 3 3 2 3 3 3 3 8 12 17 15 7 5 5 1 1 3 1 4 11 16 9 5 14 25 34 32 15 9 12 10 7 8 6 2 3 4 3 6 6 3 4 6 5 2 3 2 3 4 6 4 6 8 8 7 6 5 1 3 4 3 4 4 5 5 6 5 5 8 6 6 5 3 4 4 4 5 5 6
5 5 6 7 7 5 4 4 3 1 3 5 5 1 1 2 5 1 2 6 4 5 7 2 1 2 1 2 11 14 4 4 13 24 37 32 12 6 8 7 7 7 6 2 3 3 5 7 4 5 5 5 3 1 2 2 2 2 4 5 6 6 8 9 5 4 2 4 4 3 6 5 4 4 4 4 5 6 5 5 4 3 4 3 5 5 4 5
6 5 5 6 6 6 5 6 8 6 3 1 4 5 4 5 9 8 4 5 4 5 6 4 4 3 2 2 13 12 3 7 14 20 34 29 12 6 4 5 7 3 6 3 2 5 5 5 5 6 2 2 1 3 3 5 4 3 4 4 6 5 8 9 4 2 2 3 5 2 6 2 2 3 3 4 4 4 3 4 4 3 4 3 5 5 5 4
6 5 4 4 5 6 7 8 7 6 6 8 10 10 8 10 11 8 4 6 2 3 4 5 6 6 5 5 15 13 7 8 6 13 27 22 8 4 3 5 5 2 5 6 4 4 3 3 3 1 2 2 2 4 5 6 5 4 6 5 6 6 6 6 5 5 3 3 3 3 5 1 1 2 3 3 2 3 3 4 4 3 4 4 4 4 5 4
5 4 4 4 4 5 7 8 6 5 8 10 12 11 10 9 8 5 4 4 1 1 1 1 3 4 4 4 13 9 5 4 1 9 22 16 5 2 4 3 4 5 5 3 5 6 2 2 1 2 5 5 4 7 7 7 6 5 5 4 6 8 5 6 10 11 8 3 0 3 2 1 3 2 2 1 1 2 3 4 5 5 5 4 3 3 4 4
4 4 4 4 4 2 3 5 6 8 8 8 11 10 9 7 4 3 4 3 3 3 2 1 2 5 3 6 14 5 3 3 2 6 15 12 5 2 3 1 3 7 7 3 5 4 2 2 0 3 6 7 6 6 6 5 6 7 5 5 5 8 8 11 13 11 7 4 0 2 4 3 3 5 5 3 2 2 2 3 5 4 4 4 3 2 3 3
5 4 3 4 3 2 2 1 4 7 4 5 9 8 5 4 2 2 3 5 4 3 5 4 2 8 7 8 13 2 3 4 2 7 16 14 6 2 3 4 2 5 5 2 2 1 3 3 3 4 4 6 7 6 4 3 5 7 3 1 4 8 10 14 13 7 4 4 4 1 2 4 2 5 8 6 4 4 2 3 4 3 4 3 3 2 2 3
7 6 4 4 3 1 1 2 5 5 1 3 7 5 3 2 2 2 3 5 4 2 4 5 3 8 8 9 11 3 3 8 5 8 17 18 10 1 4 6 3 3 2 2 3 2 3 7 7 6 5 6 6 5 5 3 4 7 4 3 8 11 12 14 11 5 2 4 6 1 1 4 3 4 7 8 5 4 2 2 3 3 3 3 3 4 3 3
9 8 5 4 2 1 2 4 7 5 2 5 6 4 2 2 2 2 5 5 3 1 2 3 3 6 6 8 11 7 1 6 2 7 17 18 12 3 4 5 2 4 3 5 5 4 1 5 6 5 5 5 3 5 6 2 2 7 7 7 8 9 10 10 7 5 2 2 5 3 1 3 5 2 2 6 5 4 3 1 2 2 2 2 4 5 4 4
11 9 6 4 2 1 3 5 5 5 6 7 6 4 5 4 2 3 6 3 2 1 1 2 3 5 7 7 8 4 2 4 3 7 14 14 15 8 4 2 1 2 3 4 3 4 1 1 1 2 3 3 4 7 5 2 4 8 9 9 9 6 5 4 2 4 4 3 4 7 4 2 6 2 3 3 4 3 2 2 2 1 2 3 5 7 6 6
11 9 6 2 2 3 5 5 6 8 8 7 6 6 6 4 4 6 4 0 1 2 1 3 3 4 8 7 6 5 4 3 2 6 6 6 14 12 3 0 3 4 2 3 2 4 4 1 3 2 1 1 4 7 4 3 5 7 7 9 10 5 1 2 2 3 5 4 5 7 4 4 6 3 3 1 0 3 4 3 3 3 4 4 5 7 7 7
11 10 7 2 2 4 3 4 7 9 8 7 8 6 4 3 5 7 2 2 1 3 3 4 3 4 7 6 4 6 5 4 5 6 6 4 9 10 5 5 5 3 4 5 4 7 6 3 0 1 1 1 3 4 2 2 3 4 5 8 10 7 3 3 3 4 4 5 5 5 5 3 6 3 3 3 4 7 6 4 4 5 6 6 5 7 7 7
12 11 8 6 4 5 5 7 8 9 8 8 7 4 4 4 5 3 1 4 2 2 2 2 3 4 5 3 3 6 4 5 5 5 4 4 6 7 7 6 4 4 6 5 5 8 5 1 3 3 1 3 5 6 6 4 5 6 6 7 8 6 5 6 6 4 2 5 5 6 7 4 6 1 4 6 5 5 3 1 3 5 7 6 5 7 7 6
14 12 10 9 9 9 10 9 8 8 8 6 4 5 7 6 2 1 3 3 1 2 1 1 3 3 4 4 4 5 3 3 5 5 3 3 5 6 6 6 5 4 2 3 5 7 5 4 5 5 2 3 7 7 6 6 6 7 5 4 4 5 8 8 8 6 5 7 10 9 5 4 6 1 5 7 5 4 4 2 4 5 6 7 7 7 8 8
15 15 13 12 11 10 10 8 6 8 7 4 4 6 8 5 1 1 2 3 1 3 1 0 4 4 2 3 3 4 3 3 4 5 4 4 5 4 4 6 7 3 1 2 3 3 4 5 4 4 3 3 6 4 2 4 4 3 2 2 3 4 6 6 6 7 8 9 10 8 2 4 5 1 6 7 6 5 4 4 5 5 6 6 7 8 10 11
9 16 18 16 12 9 6 5 6 7 5 5 7 7 6 2 3 1 2 4 1 3 2 1 4 4 3 3 3 2 2 2 3 4 4 4 3 3 3 4 5 3 1 2 2 1 0 5 5 2 2 2 6 4 1 1 3 2 1 3 3 5 3 3 6 7 9 9 8 4 1 3 2 1 5 6 3 1 2 3 3 5 6 6 7 10 11 11
2 10 17 19 16 11 5 3 5 6 4 6 8 5 2 4 2 2 2 1 0 1 3 3 4 5 4 4 4 4 2 2 2 4 3 2 1 2 2 2 2 4 2 2 1 1 1 5 6 6 4 2 3 5 2 3 4 2 3 4 6 5 1 1 6 7 8 9 6 2 4 4 2 1 2 2 4 7 6 6 9 10 10 11 11 12 13 14
3 3 11 19 20 12 6 3 5 5 4 7 8 3 2 2 2 2 1 1 0 1 3 2 1 3 3 3 4 6 4 2 3 4 2 1 1 1 2 1 1 2 1 2 1 0 1 6 6 3 3 3 1 2 1 2 3 3 3 5 5 2 2 2 4 6 7 9 6 4 9 10 5 2 1 2 7 10 11 13 14 11 11 12 13 14 16 16
5 4 7 18 21 13 6 3 6 6 6 8 6 3 2 0 1 2 1 1 1 1 4 2 0 1 0 1 3 5 5 3 4 4 2 2 1 2 2 2 0 1 1 0 0 0 1 4 6 1 2 7 3 4 4 4 3 4 2 4 3 5 5 3 2 4 6 10 9 10 11 7 4 4 3 4 9 13 17 17 13 12 13 14 15 17 17 15
2 3 4 17 19 11 6 3 5 7 8 6 3 2 1 0 1 1 1 0 1 2 3 1 1 2 1 2 2 4 4 2 3 3 2 2 3 2 3 1 1 1 2 1 2 1 1 1 4 2 2 6 4 3 4 5 3 3 3 3 3 3 2 1 1 1 3 8 10 13 12 5 3 4 3 6 12 18 20 15 11 14 16 16 17 16 15 14
1 2 2 16 16 6 6 9 9 9 7 4 3 2 1 0 1 1 1 1 1 1 1 2 1 2 1 1 1 1 2 1 1 2 1 1 2 1 2 1 1 2 2 3 2 1 1 1 4 5 3 3 3 3 3 3 4 5 5 5 5 2 2 3 2 2 1 4 8 11 11 7 5 1 2 10 16 18 17 13 13 16 18 18 17 14 14 15
3 3 3 18 15 1 3 13 10 5 4 3 2 2 1 1 1 2 0 1 1 1 1 4 3 1 0 1 1 1 1 2 1 1 0 1 1 2 1 3 2 2 2 4 3 0 1 1 3 6 5 4 4 3 2 1 2 3 4 4 3 2 4 6 6 1 3 1 6 7 8 10 6 1 3 12 16 14 13 15 17 18 19 19 15 14 16 14
5 4 5 16 10 5 8 9 4 3 4 3 1 2 1 1 2 1 1 0 1 1 2 3 2 1 2 0 0 1 0 1 0 1 0 1 1 2 2 3 3 1 2 1 2 2 2 2 2 5 5 7 7 4 2 2 3 3 2 2 2 2 3 2 5 6 3 3 7 6 8 10 4 2 7 14 13 11 13 17 19 18 18 17 14 16 17 12
4 3 5 12 3 5 11 7 3 5 4 0 1 1 1 1 2 0 0 1 1 0 2 2 0 1 1 1 1 1 0 1 1 0 1 2 2 3 2 3 3 1 3 1 3 1 1 2 3 5 5 5 5 3 2 1 4 4 2 3 3 2 1 4 5 4 3 3 5 6 8 8 4 5 10 13 11 12 15 18 19 18 15 14 17 18 14 12
3 3 4 13 5 3 5 4 2 2 1 0 2 2 2 1 2 1 1 1 1 1 2 1 0 1 1 1 2 1 0 0 1 1 1 1 2 1 1 3 2 2 2 0 1 2 2 1 3 6 8 7 6 5 3 3 4 3 2 3 4 4 4 2 2 2 1 4 7 8 9 10 10 10 13 11 11 15 17 17 17 16 13 14 17 15 12 13
3 1 3 13 16 9 4 4 6 5 3 3 4 2 3 2 1 1 1 0 0 2 1 0 0 1 1 1 2 1 1 1 0 1 2 1 3 2 2 1 0 1 0 1 1 1 1 0 2 2 5 8 8 8 8 9 7 4 3 5 5 4 6 4 4 4 4 7 9 8 10 15 17 16 14 12 13 18 19 17 16 14 13 16 16 12 13 14
3 2 2 8 13 10 4 1 4 6 5 5 4 1 1 2 1 1 2 1 0 1 1 1 0 1 2 2 2 2 2 2 1 1 1 2 4 2 2 1 1 1 3 3 3 3 2 0 2 4 5 6 8 10 12 11 8 9 9 6 3 2 3 3 4 4 6 10 10 8 12 19 21 18 14 14 17 19 19 18 18 15 16 20 16 12 14 14
2 3 2 1 3 5 5 4 5 4 3 4 3 0 1 1 2 1 1 0 1 1 1 2 1 1 2 2 2 1 2 2 2 1 1 2 4 3 3 0 1 1 2 3 3 3 4 2 3 5 8 9 10 13 15 11 7 10 10 5 2 5 5 4 5 7 9 9 10 14 17 19 20 17 15 17 19 18 18 18 17 16 18 18 15 14 15 16
3 3 2 1 2 2 3 3 3 5 4 3 3 1 1 1 0 1 1 1 1 1 0 1 3 2 1 1 2 0 3 4 3 1 0 1 3 4 4 1 1 3 2 2 3 4 5 3 4 3 6 9 10 13 13 8 6 6 5 3 3 6 7 6 7 9 10 8 12 20 22 18 16 16 16 18 18 17 18 18 16 17 18 15 14 16 17 18
3 4 0 2 3 3 1 2 4 6 5 4 3 2 2 3 3 2 1 1 2 2 0 1 3 2 2 2 3 2 1 2 2 3 1 1 2 2 3 2 1 3 3 3 3 2 3 3 3 1 8 11 11 11 8 6 7 4 1 2 4 5 7 8 9 10 12 12 16 20 20 16 13 14 17 17 15 15 16 15 17 21 18 15 15 17 17 19
2 4 2 3 4 2 2 3 3 5 4 3 2 1 2 5 4 2 1 1 0 2 2 1 2 1 2 3 4 1 3 4 3 5 3 1 3 1 0 1 1 3 4 2 1 1 1 3 1 2 6 10 8 7 5 7 10 7 2 3 6 9 9 9 10 11 13 15 15 15 15 14 10 12 17 16 14 15 16 18 21 20 16 15 17 18 17 19
4 5 7 7 4 3 2 2 3 4 2 2 2 3 2 4 5 3 1 1 2 1 0 1 2 1 2 2 2 3 4 5 5 6 6 4 2 2 2 2 2 2 4 2 2 3 2 2 2 4 5 8 5 6 12 14 9 4 3 5 7 9 11 10 10 13 14 15 14 12 10 11 11 14 17 17 17 18 18 21 21 16 14 16 19 19 18 19
7 6 5 7 4 2 2 2 3 3 2 0 2 3 1 3 4 3 3 0 0 0 1 3 4 3 2 1 2 3 3 4 5 5 4 4 1 1 1 1 2 1 1 2 1 2 2 1 3 3 4 9 8 10 13 13 7 3 2 3 5 9 11 12 14 16 12 7 7 7 8 12 15 16 18 19 20 18 17 19 17 12 13 17 19 19 18 19
Wind_Direction
44 45 43 38 24 8 2 1 8 16 32 49 54 49 38 36 46 56 56 52 50 56 93 156 154 166 327 335 355 3 19 33 35 35 34 8 353 354 350 347 351 351 345 340 351 8 26 23 7 14 50 71 15 338 358 21 52 48 77 112 267 214 201 197 187 198 180 258 252 219 176 139 184 214 161 60 51 75 61 43 34 40 47 65 92 104 109 113
50 44 32 23 12 8 7 7 15 31 55 66 61 51 39 42 49 50 48 45 51 53 64 172 203 240 287 294 298 336 329 19 27 28 16 360 355 356 351 353 352 348 348 344 355 16 40 2 351 22 49 57 357 335 8 17 43 85 115 137 241 208 216 205 185 203 200 248 237 205 182 178 202 162 154 134 91 106 79 46 39 65 62 70 89 102 106 101
52 35 18 12 12 15 14 17 33 58 74 74 62 48 41 46 48 45 43 42 52 62 69 93 57 269 270 270 266 295 280 19 28 13 360 358 357 357 357 357 353 351 355 359 4 23 62 53 24 43 49 50 356 339 23 13 3 121 121 297 250 220 244 245 198 216 247 320 6 334 12 307 233 150 163 167 163 181 140 158 117 116 121 100 95 101 101 92
45 26 14 12 16 20 23 34 58 78 78 74 59 45 43 47 51 50 45 40 46 71 82 86 65 9 292 261 245 240 300 45 25 344 353 358 357 357 2 2 359 2 11 28 33 39 62 75 54 52 64 24 341 9 35 350 355 106 139 207 247 239 279 287 225 228 287 20 52 71 20 342 260 167 146 137 133 269 231 202 166 154 149 131 118 103 97 90
37 21 12 11 16 25 36 55 73 80 75 68 53 44 48 51 59 58 48 40 40 75 104 93 73 57 56 49 137 214 73 54 340 337 351 355 358 1 7 11 11 15 25 38 33 39 48 53 52 43 53 34 352 19 30 333 49 209 246 204 218 153 282 308 312 244 83 80 78 83 295 247 196 66 147 156 172 244 246 219 151 141 139 131 123 110 96 90
32 16 10 10 18 34 49 67 73 75 71 60 49 44 52 56 64 62 50 39 34 60 133 123 90 68 64 60 66 76 89 91 319 337 347 349 359 6 15 22 22 25 35 42 31 37 40 31 51 48 41 48 13 16 308 313 31 246 293 336 197 176 238 326 349 292 111 105 105 165 220 116 100 286 183 178 211 280 280 142 124 122 125 122 116 109 99 93
26 13 11 13 24 43 56 69 71 73 69 53 46 48 56 61 67 60 49 40 33 44 121 154 161 81 53 52 60 60 84 112 333 343 343 345 358 9 24 30 23 26 37 39 28 42 54 33 56 106 77 52 29 312 299 315 28 100 274 326 324 191 231 297 323 316 91 156 228 191 167 110 180 246 136 175 291 12 75 111 114 116 119 117 110 108 107 97
24 15 15 20 32 48 59 71 72 73 63 48 49 55 62 65 69 59 51 44 39 50 70 108 207 258 325 6 60 56 59 331 343 347 339 343 2 10 21 26 19 24 38 37 26 49 69 42 73 148 78 50 164 229 329 343 18 66 248 306 319 235 275 295 335 6 328 241 224 168 175 229 211 187 107 106 71 81 102 107 111 116 115 114 113 114 108 90
27 20 23 32 40 50 62 69 68 69 51 50 58 62 64 60 67 61 56 50 49 63 68 63 59 24 359 52 82 65 3 337 343 342 338 345 4 10 14 18 16 23 39 39 33 50 71 80 185 179 142 167 136 305 335 25 341 214 236 289 329 310 312 328 21 3 322 248 164 169 274 280 230 170 63 64 89 106 105 104 112 115 111 113 112 99 90 83
32 29 34 38 45 54 63 64 62 61 52 64 69 66 63 52 65 72 72 61 55 70 67 64 61 57 67 72 74 61 344 344 350 346 349 355 5 10 10 14 14 24 42 39 36 41 54 171 195 153 134 126 90 321 359 64 160 233 275 206 70 324 314 6 29 353 340 20 86 232 276 299 308 284 359 64 108 118 103 104 109 110 111 105 93 80 83 82
37 34 38 42 56 62 61 64 64 67 71 78 74 75 73 60 65 76 88 65 50 62 43 41 48 56 63 61 73 52 347 351 356 1 13 13 22 21 11 16 18 26 43 43 38 34 43 172 163 128 116 83 79 346 9 45 110 350 332 189 308 340 342 14 11 349 7 42 73 190 258 309 348 352 132 129 141 128 112 115 113 112 115 98 93 88 86 86
37 39 50 65 73 72 72 77 80 84 87 83 86 94 80 58 50 65 88 70 54 47 29 32 34 46 55 53 67 26 357 2 2 15 28 22 36 34 22 28 27 31 53 57 41 39 58 122 112 91 338 162 122 340 82 63 67 352 31 127 311 357 10 5 355 334 12 35 302 192 290 331 5 6 32 146 138 123 112 119 123 117 113 99 99 96 89 89
48 63 77 84 82 84 88 91 93 92 89 88 102 99 73 52 37 43 75 70 56 41 48 55 47 55 59 57 52 17 9 9 11 25 31 26 48 54 41 44 41 48 63 66 55 50 60 70 87 96 96 90 95 294 109 32 33 302 22 68 339 4 347 320 348 330 12 66 346 15 332 312 85 30 28 162 135 122 116 121 130 116 106 103 102 98 95 88
72 85 88 86 85 92 96 97 91 81 79 96 122 106 75 62 42 52 68 54 42 39 52 45 43 64 63 94 53 15 10 15 22 24 20 22 36 43 47 59 68 69 62 59 55 52 64 76 80 92 90 73 313 337 34 6 17 332 1 46 33 12 291 311 344 345 18 13 8 27 314 273 208 26 7 187 151 132 127 130 129 107 102 107 103 100 95 83
89 91 85 80 83 91 93 91 79 70 66 73 135 119 83 78 66 83 82 54 47 61 62 40 46 88 66 84 23 8 10 19 21 16 12 18 25 17 12 56 89 77 57 52 54 51 57 72 72 59 325 3 38 38 16 346 13 26 9 343 357 8 294 319 332 26 45 300 8 32 302 270 237 354 344 196 159 134 130 131 118 105 108 110 103 102 94 81
95 86 75 74 80 86 90 88 80 78 76 73 80 81 90 101 93 93 77 44 51 59 60 27 22 86 91 359 332 358 9 12 8 10 15 18 21 11 2 43 95 53 42 43 44 43 44 56 72 61 350 9 40 48 29 9 354 10 39 318 302 319 312 323 318 70 75 296 352 26 274 274 294 342 333 208 151 132 126 118 106 109 113 110 106 103 98 87
88 68 60 67 76 89 100 98 92 88 85 83 81 78 80 80 108 196 288 324 60 50 52 30 6 90 77 352 342 349 348 355 0 9 15 16 17 13 17 43 359 330 308 20 26 25 26 42 59 47 37 31 39 49 45 20 331 328 20 312 274 282 294 312 305 313 27 3 326 352 217 277 329 344 342 76 135 125 117 112 114 117 112 112 110 103 95 87
65 51 55 68 85 105 112 107 102 99 94 89 84 79 76 72 75 73 49 81 194 353 38 21 15 93 28 353 351 322 318 339 2 8 12 13 10 13 24 38 358 1 24 9 18 19 10 22 46 52 31 23 24 43 50 352 295 298 316 314 298 282 247 281 286 305 22 2 295 331 312 321 347 353 8 41 104 108 105 108 115 114 114 116 101 96 87 73
48 51 63 73 91 113 122 120 114 117 113 103 92 73 61 62 65 60 51 56 61 38 49 351 12 105 326 327 321 321 316 334 5 9 9 6 357 6 23 32 27 31 39 7 6 16 16 22 37 44 10 357 355 47 100 269 258 265 283 280 293 299 278 262 264 275 360 327 292 357 359 346 0 5 26 31 73 93 96 98 101 106 109 108 93 89 79 66
49 60 66 68 83 103 116 126 202 192 191 225 240 323 348 36 45 40 32 42 61 75 97 256 15 92 359 317 328 342 345 343 10 11 6 1 347 355 16 17 29 45 41 345 326 359 64 56 34 3 312 307 306 251 179 255 251 263 288 277 281 292 294 281 267 271 334 330 282 141 95 37 20 12 32 40 71 85 86 85 85 91 91 97 93 81 72 67
59 64 64 62 71 74 75 71 57 173 231 253 247 327 185 145 77 116 319 38 44 55 79 100 113 72 336 327 346 353 357 342 9 8 3 0 357 9 5 7 31 29 4 297 270 338 60 60 2 289 271 265 293 249 172 314 301 297 297 298 305 291 289 291 275 278 28 14 297 134 86 44 31 16 31 51 71 80 85 91 84 81 78 84 82 65 58 57
69 68 69 59 57 59 63 67 60 62 66 165 141 101 134 142 121 147 153 88 27 27 66 55 53 35 287 29 6 3 43 8 2 360 358 1 16 29 359 33 55 11 333 354 5 1 43 47 319 286 254 177 77 68 62 9 350 329 310 311 316 307 302 296 262 232 60 354 304 99 90 55 37 39 39 43 73 88 83 98 100 87 72 76 84 61 42 35
69 66 67 47 47 58 57 60 54 53 84 115 114 109 122 121 130 147 107 95 57 4 35 34 57 20 343 27 8 10 59 30 354 343 354 1 15 42 57 40 40 358 351 23 54 49 47 4 315 291 84 95 19 9 23 10 359 336 329 326 310 314 329 313 300 306 301 286 281 101 97 120 91 65 56 34 69 89 65 73 75 67 64 74 97 77 48 29
58 54 53 44 53 66 59 57 60 79 98 111 111 118 132 127 135 140 82 87 67 11 24 49 105 42 13 3 358 13 82 45 36 338 353 5 356 22 72 39 23 12 353 30 82 85 73 296 223 87 41 45 14 357 13 8 351 328 308 283 291 310 313 288 298 310 314 314 144 87 53 227 185 157 150 156 111 87 68 69 68 55 49 51 70 67 41 24
31 28 32 37 44 66 82 59 70 101 104 111 121 128 129 124 137 120 83 71 19 338 350 33 84 27 6 346 354 16 116 40 97 344 352 5 346 349 41 9 64 12 336 8 75 74 25 300 121 30 18 42 34 3 10 7 345 326 289 238 272 310 306 293 302 317 332 329 267 61 344 291 181 184 198 192 182 163 116 88 88 66 47 42 30 19 17 15
5 1 4 11 25 62 145 83 93 119 108 115 139 144 139 127 108 95 91 65 21 324 352 6 20 6 353 344 345 7 92 358 319 5 6 8 355 139 46 348 46 15 331 350 50 53 344 344 54 58 37 41 32 8 4 20 357 326 294 189 304 315 305 299 308 323 331 299 278 113 294 279 220 210 207 189 188 184 151 93 95 75 51 37 352 318 334 358
354 349 343 332 342 12 218 177 148 148 120 161 166 164 175 153 92 93 70 42 6 322 1 338 337 9 1 345 347 64 93 316 307 18 10 6 354 113 56 9 1 352 322 44 15 325 337 351 19 42 40 40 33 0 342 18 6 312 306 12 330 314 301 298 308 307 263 291 298 313 183 254 264 241 198 170 182 193 161 84 75 63 34 19 338 312 307 333
359 352 341 320 310 287 206 163 157 161 147 162 170 166 161 143 142 117 80 66 346 348 34 315 329 10 358 356 13 71 127 314 9 1 350 5 6 17 61 25 350 294 306 61 15 300 318 2 359 13 23 34 17 323 316 358 345 290 302 329 305 288 282 285 302 301 292 337 306 309 26 273 279 303 128 149 185 203 174 96 53 30 346 348 328 310 295 298
9 2 349 323 293 162 153 153 149 147 145 148 148 150 144 116 106 66 75 105 325 355 151 328 350 346 348 3 16 44 5 1 67 329 339 11 12 21 84 4 14 272 309 64 26 302 316 295 240 82 41 11 318 307 306 326 302 293 311 322 303 281 272 281 327 316 335 40 305 307 6 333 296 313 112 160 218 212 142 81 25 326 306 312 309 304 291 287
19 13 6 341 209 157 142 132 130 137 138 139 141 142 134 89 64 60 51 166 331 330 269 18 6 338 4 10 351 2 22 6 332 331 349 17 3 12 87 39 55 94 347 22 19 299 312 274 176 112 43 249 271 288 278 243 287 318 333 330 326 322 343 33 40 19 2 1 301 305 5 19 314 304 128 150 182 106 84 32 327 287 289 285 287 293 285 284
28 23 21 17 179 171 154 116 124 140 134 133 141 126 100 41 59 87 85 265 314 332 360 17 351 7 29 31 349 350 10 338 336 11 13 7 5 9 30 18 23 55 8 3 351 327 342 28 108 307 321 263 272 292 297 242 288 351 350 344 341 339 11 358 355 49 14 305 291 314 353 342 291 298 89 94 85 90 79 13 313 287 295 283 270 286 284 282
34 31 37 55 104 122 126 130 134 137 131 132 131 90 73 35 29 93 280 320 337 334 12 338 320 2 9 19 3 333 338 343 358 42 18 5 30 27 33 25 354 9 10 357 343 339 344 332 307 318 336 19 3 347 347 346 353 3 1 3 355 339 349 334 328 1 310 277 305 338 347 308 270 294 111 129 110 102 118 307 281 274 291 282 269 288 288 281
39 40 49 63 86 96 103 124 135 137 141 134 98 51 75 79 33 233 276 328 355 333 15 273 307 338 338 360 359 329 342 353 353 26 22 29 48 33 34 28 13 26 4 330 345 348 333 303 337 2 339 21 34 9 342 335 348 354 348 10 27 351 334 321 317 322 297 289 306 322 332 285 281 304 139 144 137 151 173 232 247 246 273 273 269 289 297 299
38 44 54 61 75 90 101 119 133 142 149 116 68 51 66 80 211 217 287 275 283 337 13 209 316 333 26 34 342 331 11 349 349 22 10 21 43 18 8 9 17 52 136 359 3 5 347 314 337 23 329 348 27 17 290 290 311 311 288 100 68 347 315 304 308 311 310 306 307 323 319 255 291 296 155 150 154 177 204 238 238 239 261 266 274 298 309 314
31 41 48 49 52 66 96 125 137 146 147 83 63 62 79 138 231 183 248 259 282 329 311 330 6 12 3 339 327 360 38 311 346 42 23 25 45 10 357 344 357 26 81 36 335 268 318 271 271 327 308 24 13 345 220 328 314 262 141 79 2 316 279 274 293 296 307 306 301 318 259 226 267 156 157 160 177 273 281 269 298 309 306 308 310 316 320 320
8 37 40 37 32 34 56 112 139 146 130 83 67 56 128 191 212 165 201 277 329 300 318 339 32 36 336 315 334 357 13 278 336 28 30 53 74 357 3 290 331 15 59 92 331 340 351 274 287 337 342 97 23 330 337 28 343 327 25 348 302 297 178 243 307 306 311 309 297 301 305 304 323 167 163 203 307 331 333 334 343 341 336 334 328 328 328 323
197 75 39 27 19 19 31 82 142 145 102 77 81 94 203 198 158 172 199 3 238 131 68 28 9 21 330 313 317 326 345 338 352 17 18 30 39 32 20 301 300 23 26 151 217 236 228 284 299 4 330 274 265 346 15 44 30 52 5 314 295 320 103 100 327 310 311 308 298 312 317 316 323 323 4 309 309 322 334 343 346 343 338 332 328 329 325 322
188 152 50 19 10 11 25 86 122 112 86 67 75 127 183 158 144 191 191 108 229 65 74 108 260 21 107 269 298 312 344 357 358 17 21 348 349 109 76 332 302 51 309 144 99 208 165 295 307 84 275 291 323 42 360 339 35 70 341 322 8 355 350 36 343 297 316 314 304 311 313 307 311 326 357 327 317 333 341 344 344 338 334 331 330 328 324 328
167 134 41 4 4 15 29 109 113 67 71 79 81 140 157 184 210 210 196 149 137 85 71 173 241 31 128 179 257 307 350 13 350 3 39 6 342 105 103 325 293 346 324 108 133 258 142 289 296 294 295 311 343 25 334 318 349 26 357 357 29 351 298 155 185 231 323 311 305 314 316 319 321 320 358 340 335 344 343 342 341 335 334 334 329 325 328 334
71 107 3 354 2 25 53 71 72 47 64 110 159 148 83 208 235 264 195 191 176 111 87 190 162 25 316 245 255 305 358 43 359 354 43 11 331 5 77 118 288 319 355 63 89 290 12 170 263 293 328 351 348 321 311 325 347 359 1 355 358 355 248 268 298 123 114 305 310 315 309 315 335 323 349 343 345 347 343 340 337 333 333 331 323 325 333 331
54 90 326 350 357 244 75 58 54 45 82 92 119 117 49 165 165 348 236 186 225 236 156 155 143 101 162 12 12 229 340 11 40 42 328 336 2 330 327 154 193 307 25 41 33 45 49 169 254 301 336 342 313 288 279 128 90 26 1 355 3 14 351 335 321 332 112 298 300 299 290 304 331 70 338 347 347 344 345 342 333 330 329 323 321 333 335 331
60 90 323 348 11 102 74 57 26 32 95 75 73 124 32 94 111 356 297 131 262 248 76 107 120 114 145 142 307 190 299 329 13 67 225 258 222 248 250 156 166 182 84 16 295 230 150 117 253 280 285 285 292 322 15 109 99 66 49 56 60 63 53 19 294 310 351 282 281 281 282 297 328 22 345 348 345 343 349 340 329 326 323 321 330 338 336 340
79 133 349 355 8 110 67 61 339 22 71 45 4 91 10 69 110 335 310 28 332 236 42 54 95 57 151 198 145 147 196 209 210 203 203 253 254 229 211 180 179 102 76 6 302 272 124 74 340 298 273 263 285 355 25 33 33 16 10 50 58 68 110 193 232 306 328 280 295 296 283 295 328 355 345 344 343 346 343 333 326 322 319 329 338 336 339 353
108 162 7 11 13 163 84 98 147 68 93 132 64 41 344 67 102 30 343 338 342 126 78 72 225 45 137 148 106 148 276 77 207 295 91 198 248 268 177 204 202 66 78 190 328 329 307 16 5 336 328 325 336 354 322 311 358 343 307 39 58 55 19 311 250 13 328 278 307 309 296 305 323 339 340 340 345 342 333 328 326 320 323 338 336 334 347 353
76 120 321 15 36 68 106 148 142 133 149 107 83 36 357 42 66 64 155 267 278 158 120 57 183 94 116 100 61 30 355 43 318 329 42 231 260 345 29 214 170 49 182 207 33 20 299 329 81 26 326 320 323 324 317 323 335 325 339 30 45 41 26 354 325 356 324 297 306 306 299 305 318 330 334 341 346 336 329 330 327 324 335 336 332 342 352 349
81 63 319 358 27 51 69 69 92 111 146 126 88 15 37 79 310 265 148 123 225 154 74 23 183 87 66 59 40 341 319 20 21 16 57 269 268 297 336 332 38 96 124 85 48 73 95 254 202 176 210 259 283 288 298 316 319 308 323 359 22 352 22 17 338 326 311 307 307 300 300 308 317 328 336 344 344 335 330 332 331 335 338 332 336 352 351 348
90 96 81 5 14 40 44 23 44 85 140 132 109 172 163 122 317 314 136 156 153 120 51 38 49 60 55 51 59 281 290 352 16 17 163 246 264 289 306 339 45 352 116 85 30 78 86 304 247 195 217 241 264 278 291 306 298 292 312 348 6 325 345 9 336 313 314 314 307 312 317 315 315 326 340 343 340 333 330 331 335 337 331 331 347 353 346 348
69 137 174 110 88 89 73 54 77 85 75 85 107 120 109 96 129 181 191 337 34 45 143 52 19 34 147 150 101 95 324 354 356 308 289 290 297 332 341 3 17 339 39 52 2 94 113 268 248 205 256 261 265 276 284 289 271 275 313 342 332 323 331 336 317 307 315 311 303 313 320 316 315 328 339 338 336 332 327 330 335 331 327 340 355 349 347 348
81 113 33 20 91 134 111 68 99 93 70 69 95 110 133 145 169 208 237 25 3 333 108 133 337 358 166 176 112 91 316 6 337 295 222 313 316 355 359 344 337 354 57 69 354 100 138 261 252 258 293 288 283 279 272 270 285 306 356 290 300 317 321 319 308 304 310 305 301 310 316 316 320 328 329 331 333 327 325 329 332 329 335 353 354 346 349 347
145 149 143 68 77 77 34 35 81 90 59 47 84 114 141 153 176 216 210 116 149 317 22 86 280 316 137 144 115 125 230 189 233 256 186 122 316 245 190 251 247 344 20 71 334 5 38 300 327 55 316 297 288 283 288 303 311 323 336 305 322 334 332 324 315 316 317 311 311 322 321 314 319 325 324 329 332 329 332 334 330 332 345 355 350 345 347 344
106 129 136 113 76 4 13 33 66 94 58 15 122 160 177 186 187 167 134 168 178 211 357 168 200 158 78 97 140 243 238 185 208 229 185 168 247 213 212 225 178 340 352 31 348 357 35 320 346 45 344 299 302 340 327 316 312 326 332 322 335 339 330 323 324 327 326 323 328 339 326 312 323 329 326 329 333 335 337 332 327 336 354 355 348 343 341 341
100 98 113 105 82 357 13 31 31 87 115 342 142 156 201 216 196 127 100 266 107 132 227 180 167 142 74 359 260 253 229 195 212 226 190 170 200 195 221 202 147 171 281 100 24 355 85 11 329 14 330 303 324 342 319 309 324 355 305 274 318 330 324 322 328 330 334 345 345 334 320 319 327 329 329 332 335 338 337 328 327 344 359 354 346 338 337 340
Height
809 809 809 809 809 809 809 809 808 808 808 807 807 807 806 806 805 805 804 803 803 802 802 803 802 802 802 801 801 801 801 801 799 798 800 804 805 802 801 798 796 794 792 791 789 789 789 788 789 788 788 790 793 795 794 796 798 798 803 810 811 814 813 805 804 806 803 799 799 805 807 804 806 813 816 817 820 825 827 830 830 829 830 831 832 834 835 836
810 810 811 811 811 811 810 809 809 809 809 808 808 807 807 806 806 805 804 804 803 803 803 802 803 803 802 801 801 801 801 801 800 800 803 806 804 802 801 798 797 794 792 790 790 789 789 790 790 790 790 792 796 796 794 798 799 801 810 813 810 810 807 803 802 802 803 800 800 806 809 807 805 809 813 812 819 825 824 831 835 833 834 834 834 835 836 837
812 812 812 812 811 811 810 810 810 810 810 809 809 808 808 807 806 806 805 804 804 803 803 803 803 802 801 801 800 801 801 801 801 803 805 806 803 802 801 798 797 794 791 790 791 790 790 791 791 791 792 794 799 798 796 799 801 805 811 810 807 807 805 804 805 802 804 805 802 806 810 810 809 812 812 811 819 824 820 827 833 834 837 837 837 838 837 837
813 813 813 812 812 811 811 811 811 811 810 810 810 809 809 808 807 806 805 805 804 804 803 803 803 801 800 799 800 801 800 802 806 808 807 805 804 803 801 799 797 794 793 792 792 792 792 792 791 793 793 796 802 801 801 803 805 808 809 806 806 811 806 802 805 805 807 810 806 808 811 809 812 815 813 814 815 817 818 821 823 829 836 837 839 839 839 838
813 813 813 813 812 812 812 812 812 811 811 811 810 810 809 808 808 807 806 805 804 804 804 804 803 802 800 799 801 800 801 808 812 809 808 806 805 803 802 801 798 796 794 793 793 793 792 793 793 795 797 799 802 802 804 808 808 807 806 807 810 813 806 802 808 808 808 810 809 810 809 808 814 815 814 813 807 809 816 820 822 828 834 837 839 840 840 840
813 814 814 813 813 813 812 812 812 812 811 811 811 810 810 809 809 807 807 806 805 804 804 804 803 802 802 801 802 799 803 815 815 809 809 807 805 804 803 802 800 798 796 794 794 793 794 794 794 798 800 802 806 805 806 811 810 806 805 808 811 812 807 805 809 808 809 808 805 808 809 812 813 811 815 814 810 816 820 821 825 831 834 837 839 840 841 842
814 814 814 814 813 813 813 812 813 812 812 812 811 811 810 810 809 808 808 807 806 804 804 804 803 804 803 803 803 802 807 816 814 811 810 807 806 805 803 803 801 799 797 795 794 795 796 796 796 802 803 803 808 808 808 810 809 807 806 806 809 811 808 808 809 810 811 807 807 811 810 810 808 808 816 816 818 824 822 822 827 831 835 837 838 840 841 842
814 815 815 814 814 814 813 813 813 813 813 812 812 811 811 810 810 809 809 808 807 805 805 805 805 804 804 804 804 806 812 816 814 812 810 807 806 805 804 803 801 800 798 796 797 796 797 798 801 805 804 805 808 808 809 808 807 808 807 807 809 809 809 810 809 808 809 809 811 811 807 808 811 812 814 818 824 826 823 825 828 831 835 836 838 840 841 843
815 815 815 815 814 814 814 814 814 814 813 813 812 811 811 811 810 810 809 809 808 807 807 806 806 805 805 805 804 810 818 817 815 812 809 807 806 805 804 803 801 800 799 798 799 796 798 801 803 804 803 807 809 808 810 807 806 810 809 809 808 807 810 809 808 807 808 810 810 807 804 807 816 815 815 825 829 827 827 828 830 832 835 837 838 841 842 843
815 815 815 815 815 815 814 814 814 814 813 813 812 812 812 811 811 811 810 810 810 809 808 807 808 807 806 806 806 816 821 817 815 812 809 806 805 805 803 803 802 801 800 800 800 798 799 800 801 802 802 807 808 809 811 809 808 812 812 811 809 809 812 811 808 809 809 809 809 807 803 807 816 812 813 829 832 828 830 832 834 835 836 840 841 844 845 845
816 816 816 815 815 815 815 815 815 814 814 813 813 812 812 812 811 811 811 810 810 810 809 809 809 808 808 806 809 820 820 816 815 811 808 807 805 805 804 804 803 802 802 801 801 800 800 800 801 802 802 806 808 810 811 811 811 813 813 810 809 811 812 812 809 809 809 808 811 810 805 810 813 810 817 831 832 829 830 833 837 836 838 842 843 845 845 846
816 816 816 816 815 815 815 815 815 814 814 813 813 813 812 812 812 811 811 811 811 810 810 810 809 809 809 807 813 822 819 816 815 811 809 807 806 806 805 804 803 803 802 802 802 802 801 801 800 801 805 808 808 810 810 813 814 814 813 806 805 808 808 813 812 810 811 809 813 811 807 807 810 818 828 832 832 831 832 835 837 838 840 843 844 845 846 847
817 816 816 816 816 816 816 816 815 814 814 813 813 813 813 813 812 812 811 811 811 811 811 811 810 810 808 811 819 821 818 817 814 811 809 807 807 807 806 806 804 804 803 803 803 803 802 802 801 803 809 809 809 812 811 815 814 812 817 813 810 811 807 813 816 813 810 811 813 811 809 807 813 829 834 832 833 832 834 837 838 840 842 844 845 846 847 847
817 816 817 817 817 816 816 816 815 815 814 814 813 813 814 813 812 812 812 812 812 812 812 811 811 810 810 816 820 819 818 817 813 810 809 808 808 807 807 807 805 805 804 804 804 804 804 803 802 804 810 812 813 813 812 816 816 813 818 820 825 823 809 810 819 816 809 813 812 810 813 808 814 832 834 833 834 831 835 839 840 842 845 846 846 847 847 848
817 818 818 818 817 817 817 816 816 815 814 814 814 814 814 814 813 813 813 813 812 812 812 811 811 811 814 819 819 819 818 815 813 813 812 810 809 808 807 807 806 806 805 805 805 805 804 802 804 808 813 815 814 813 813 815 819 821 819 819 830 829 816 814 821 819 814 816 813 810 813 808 813 831 834 833 834 832 836 840 842 845 846 847 847 848 848 848
818 819 818 818 818 818 817 817 817 816 815 814 814 814 815 815 815 814 814 813 812 812 812 812 812 811 817 822 820 819 818 816 816 816 815 812 811 810 808 807 807 806 805 806 805 805 804 804 811 819 818 818 820 818 814 814 820 828 828 824 826 827 825 822 818 822 822 817 813 813 815 811 820 834 834 833 835 835 838 842 846 846 847 848 847 848 849 849
819 819 819 819 818 818 818 818 818 817 816 816 815 816 815 815 815 814 814 813 814 813 812 814 813 812 818 823 822 822 821 821 819 817 815 813 813 812 809 808 807 806 805 805 804 805 805 810 818 823 825 828 832 824 817 825 828 831 835 832 829 831 833 826 818 822 824 817 815 817 818 821 832 839 836 835 836 837 840 844 846 846 847 848 848 848 848 849
820 820 819 819 819 819 819 819 819 818 818 817 817 817 817 817 816 814 814 813 813 813 813 815 814 817 825 826 827 829 826 824 821 818 815 814 813 812 810 810 809 807 806 807 808 810 812 818 822 823 829 835 838 832 826 835 838 835 837 836 835 837 836 831 823 820 822 820 820 819 820 832 843 842 840 840 839 840 843 846 846 847 848 848 848 849 848 849
820 820 820 820 820 820 820 820 820 819 819 818 818 818 818 818 816 815 816 816 817 820 825 827 825 830 836 833 832 831 827 825 823 819 817 815 814 813 812 813 813 811 812 814 815 821 823 822 825 828 832 837 842 843 837 839 843 839 841 842 840 839 835 833 826 822 826 822 818 822 829 842 848 845 845 844 843 844 846 847 848 848 848 849 849 849 849 850
821 821 821 821 820 820 820 820 820 820 819 819 819 819 819 821 822 825 827 825 828 833 836 837 836 836 838 836 834 829 826 826 823 821 818 816 815 813 814 815 816 817 824 827 824 830 831 827 833 838 840 843 846 849 846 846 848 844 844 844 844 842 834 828 823 822 827 820 817 827 840 849 850 848 849 847 846 847 848 848 849 849 849 849 850 850 851 851
822 822 821 821 821 821 821 820 820 819 819 819 819 820 821 823 826 831 834 833 837 837 836 838 838 837 837 837 835 831 829 826 822 822 821 820 816 814 820 822 821 823 833 838 834 833 832 833 841 845 847 851 851 853 852 848 847 844 844 844 844 841 829 821 821 822 825 821 820 830 842 850 852 850 849 849 849 850 850 851 850 851 851 850 851 851 852 852
822 822 822 822 822 821 821 821 820 820 820 819 819 821 823 823 824 826 829 834 839 837 837 838 837 838 837 837 836 833 833 830 826 825 825 823 819 820 828 829 828 833 838 838 833 830 832 837 844 848 854 856 853 853 850 846 845 843 845 845 841 835 825 819 817 821 826 824 822 830 842 850 851 851 851 850 851 852 851 851 851 851 852 852 853 854 853 854
823 823 823 823 822 822 822 821 821 821 820 820 820 821 823 823 824 825 825 831 837 838 838 838 837 839 837 836 837 835 835 839 838 835 831 828 828 830 833 832 832 836 840 837 831 830 833 839 847 853 854 848 843 846 847 846 845 843 845 845 837 832 833 826 817 820 826 826 826 831 842 852 852 850 852 852 852 853 852 852 853 852 853 854 855 856 855 854
824 824 823 823 823 822 823 822 822 822 821 822 822 822 824 824 825 825 827 834 838 838 839 838 839 839 839 839 838 838 839 844 846 842 838 836 835 836 836 838 836 834 840 844 839 833 835 844 852 853 849 842 839 842 846 848 847 846 844 840 834 833 837 835 827 824 824 826 831 831 834 844 851 852 853 854 852 853 854 853 854 854 854 855 855 856 856 855
824 824 824 824 823 823 823 823 823 823 823 823 823 824 825 825 826 825 828 836 840 838 838 838 839 840 841 841 840 841 842 844 847 846 843 842 840 838 839 843 841 834 840 847 843 836 840 851 854 847 843 843 842 843 849 851 851 849 840 835 836 837 840 838 832 831 829 827 828 830 830 832 845 854 852 853 854 853 855 854 855 856 855 856 856 856 856 855
825 824 824 823 823 824 823 823 824 824 824 824 824 825 825 825 827 825 829 839 844 844 841 838 841 842 842 843 843 843 843 844 847 848 844 843 843 840 840 846 846 841 845 849 845 842 845 852 852 847 845 844 843 847 851 854 855 848 838 840 843 843 842 835 831 837 838 831 824 827 834 835 842 851 848 850 854 853 855 856 856 858 857 857 858 857 856 855
825 824 824 823 824 823 822 823 824 824 825 824 825 825 825 826 826 825 831 844 850 849 847 843 844 845 845 848 846 843 847 849 846 847 847 844 844 842 841 848 850 847 852 851 843 845 848 847 848 849 846 843 846 851 851 854 856 844 836 845 847 842 840 833 834 841 839 835 828 824 831 834 831 835 841 847 852 854 856 857 857 858 858 858 858 857 856 855
824 824 823 823 823 822 822 822 823 824 824 825 826 825 826 826 826 827 834 851 858 852 851 850 846 847 849 852 850 849 855 856 849 848 850 847 846 844 844 853 856 853 857 852 842 848 853 848 850 851 847 846 849 852 853 855 853 841 838 847 846 841 839 835 836 841 842 842 833 823 830 834 825 829 844 849 851 855 857 858 859 858 860 859 858 857 855 854
825 824 823 823 823 822 822 822 822 824 824 825 825 825 827 825 826 831 839 856 860 853 854 853 847 852 856 854 854 858 859 858 858 856 853 852 849 848 851 857 860 856 858 855 846 849 854 854 856 855 851 853 852 851 851 852 848 843 843 843 839 837 836 839 841 839 839 841 834 828 833 838 829 830 847 852 849 854 857 860 861 859 860 860 859 857 854 853
825 824 823 822 822 822 822 822 823 824 824 825 825 826 827 826 831 838 848 860 861 858 859 855 855 864 865 856 854 860 862 862 867 862 857 859 855 853 856 859 861 856 853 854 850 851 856 859 859 857 856 856 854 851 848 849 850 847 847 842 834 832 832 839 844 839 837 836 834 831 833 843 837 826 839 853 853 856 861 864 862 860 860 859 858 856 853 852
826 824 823 822 822 822 822 823 824 825 825 826 826 826 826 832 841 848 858 865 862 862 862 861 867 871 871 868 863 864 865 864 868 865 862 866 866 863 860 862 865 854 848 853 853 852 853 853 855 857 859 857 853 851 848 849 853 852 851 846 838 835 835 837 839 844 848 843 836 831 833 845 840 829 844 861 859 860 864 865 863 860 859 857 856 854 852 850
826 825 824 822 822 822 822 824 825 825 826 826 827 827 828 838 851 860 867 865 862 868 870 871 875 873 874 877 872 872 872 867 869 873 874 875 877 880 877 881 882 861 852 863 864 856 848 849 856 857 858 858 853 850 849 848 851 853 854 854 855 855 854 853 849 850 852 843 833 831 838 844 834 832 853 864 861 862 862 862 862 860 857 855 854 852 849 847
828 826 825 823 823 823 823 825 825 826 827 827 828 830 833 843 860 875 877 867 867 877 879 879 879 879 878 872 871 878 876 871 872 875 879 878 879 886 889 895 893 875 868 876 877 869 854 849 855 853 853 858 856 857 861 857 856 860 860 863 872 875 876 875 864 856 853 843 831 830 842 843 829 835 857 861 859 861 860 859 858 857 856 854 851 850 847 843
829 827 826 825 825 825 825 826 826 827 827 827 828 831 837 851 871 881 877 872 879 883 883 885 880 876 875 871 876 881 874 873 877 876 876 878 880 887 890 894 895 891 886 882 885 885 869 855 854 854 857 858 858 864 868 863 862 866 863 865 874 877 882 883 871 865 864 853 840 837 843 838 828 841 856 856 857 858 857 857 856 855 854 852 850 848 844 841
830 829 827 827 826 826 827 827 827 827 827 827 831 838 847 863 877 879 874 878 885 883 883 887 881 870 870 874 882 885 876 873 878 879 878 883 888 892 895 897 899 899 891 883 888 892 880 865 857 859 864 861 860 864 865 863 864 864 863 868 875 872 872 876 871 867 865 858 848 842 838 832 835 850 856 854 856 855 853 854 852 852 851 849 848 845 841 838
830 830 828 828 828 828 827 827 827 827 828 826 833 851 865 873 879 879 880 884 886 885 881 879 878 872 869 874 877 880 881 878 877 876 878 889 895 895 899 902 903 903 896 890 895 895 884 868 859 861 863 861 864 864 864 866 863 862 866 871 872 868 870 877 875 866 863 862 851 840 836 832 838 851 856 857 856 850 850 850 848 849 848 846 845 841 839 835
830 830 829 829 829 828 828 828 827 827 828 828 838 864 881 883 884 887 890 890 891 893 883 872 876 879 875 875 873 875 879 878 877 875 877 887 892 893 899 902 903 905 902 899 899 900 896 877 864 868 863 860 867 864 863 868 865 867 874 872 868 869 872 880 886 880 876 868 848 837 842 840 837 847 857 860 856 849 847 847 846 848 847 845 843 840 837 833
829 829 829 830 830 830 828 827 828 828 828 839 859 879 886 886 890 894 895 894 894 892 881 873 878 883 882 879 876 882 883 875 877 881 882 885 887 892 900 901 902 905 906 905 897 900 905 885 867 874 871 863 867 865 862 866 867 870 872 870 874 878 879 889 900 895 885 874 853 839 844 845 840 845 855 857 853 848 845 845 847 848 846 844 842 838 835 832
828 828 831 833 831 831 830 828 830 828 829 848 871 881 885 888 893 896 897 896 894 887 879 880 885 884 886 886 882 888 890 883 885 886 884 886 887 893 901 902 901 904 906 906 901 900 905 892 875 874 874 867 864 865 866 867 869 870 870 873 877 882 891 903 907 896 886 882 867 849 844 847 844 845 852 854 850 847 846 847 848 846 844 843 840 836 834 832
828 829 833 835 831 832 832 827 830 835 843 864 880 882 887 890 892 897 900 897 893 887 881 884 888 884 885 890 889 892 894 892 893 889 887 893 892 891 902 908 904 904 906 906 904 903 903 899 885 871 870 872 867 866 868 869 873 875 876 880 883 887 891 894 894 893 891 888 880 869 859 850 845 847 851 850 847 847 848 849 848 845 844 842 838 835 834 831
828 830 834 835 832 833 830 830 848 863 868 878 885 885 889 889 889 895 900 899 895 890 887 888 889 887 886 888 892 896 896 893 895 893 892 896 892 889 901 910 907 906 905 901 903 905 904 904 898 885 878 873 867 867 869 871 875 877 879 884 890 895 896 895 894 890 892 892 889 890 879 855 843 846 849 848 848 850 850 850 847 844 842 839 835 835 833 830
829 835 838 835 833 831 830 845 872 882 877 880 885 887 890 889 889 891 895 898 894 890 890 890 890 891 891 890 892 897 896 893 893 894 894 896 894 893 901 908 909 907 904 900 904 908 907 909 907 897 885 872 866 873 877 875 873 874 880 886 892 900 905 909 904 893 895 898 890 888 881 858 844 846 848 849 851 851 852 852 848 843 840 836 834 834 832 830
834 838 838 836 835 832 835 856 879 883 882 889 891 892 893 890 889 890 892 893 891 888 887 889 891 891 891 894 895 895 894 892 892 893 895 898 899 899 905 908 906 906 904 900 902 905 905 907 903 889 876 867 865 874 878 874 872 875 881 889 899 906 907 909 908 903 907 905 895 891 881 856 843 845 848 850 852 853 854 852 849 843 838 835 834 833 831 830
839 840 839 837 833 830 837 854 871 880 887 890 888 889 892 892 890 889 889 889 890 889 885 887 893 891 893 898 895 894 893 888 889 895 898 900 900 902 907 908 904 904 904 901 903 903 899 900 901 894 886 877 871 875 876 871 875 880 884 894 905 908 908 909 910 912 910 900 896 897 880 853 841 845 850 852 854 856 855 852 849 843 838 837 836 833 832 832
839 840 841 840 835 836 848 861 867 875 884 884 883 888 889 889 893 893 891 892 895 895 888 888 895 894 896 899 894 895 897 889 887 896 901 901 901 903 907 906 905 905 905 907 908 905 901 905 907 905 906 904 895 890 883 876 880 883 884 897 907 908 911 910 906 911 909 896 893 895 878 853 843 847 852 854 857 857 853 850 847 843 841 840 836 834 834 833
836 840 844 844 844 849 862 874 870 869 878 877 879 890 889 884 891 896 894 892 894 897 892 892 897 894 894 895 891 892 897 896 896 896 897 898 897 902 908 906 906 907 907 910 910 907 909 912 909 904 906 906 900 893 885 883 892 891 888 899 908 909 912 911 906 909 907 894 887 885 876 860 851 853 855 856 858 856 852 848 845 842 842 839 837 836 836 835
838 846 853 851 852 857 865 874 872 870 876 876 877 888 889 885 889 892 892 892 894 896 894 895 897 892 889 892 891 890 894 900 901 897 899 904 901 903 908 908 907 907 907 910 911 910 909 907 906 908 904 898 895 893 889 893 899 896 893 901 908 909 910 910 908 904 899 897 886 872 870 870 862 859 859 860 860 857 852 850 847 845 844 839 838 839 838 836
843 853 864 858 856 863 865 869 875 876 878 881 885 890 888 886 888 887 888 893 894 895 891 890 895 896 896 896 891 888 892 893 894 896 901 907 906 903 903 905 907 907 907 910 911 913 911 906 909 912 906 901 902 897 895 899 899 896 898 903 906 908 908 906 905 898 895 899 889 869 870 876 868 862 863 864 863 860 855 852 850 849 845 841 842 841 839 836
850 855 866 865 863 873 877 878 881 878 878 882 885 888 886 883 885 890 895 893 889 893 891 883 889 899 901 900 894 890 891 888 887 896 902 904 907 905 900 900 905 908 908 908 913 918 912 905 911 916 908 902 899 894 894 897 894 895 903 907 906 906 904 900 897 893 890 891 884 875 876 877 871 868 867 865 864 862 857 853 852 849 845 844 845 842 840 838
846 846 857 863 868 880 884 884 880 873 877 882 880 884 890 885 883 893 900 894 884 887 891 886 890 899 901 900 896 892 895 894 891 898 905 905 906 907 903 902 905 908 907 907 914 919 911 905 914 919 911 899 890 888 890 891 892 898 904 906 904 901 899 897 892 888 886 885 881 883 885 881 873 870 868 866 864 861 858 856 853 849 847 848 846 843 841 840
840 842 847 851 865 881 882 883 882 871 871 878 878 884 890 885 885 891 896 900 896 889 892 892 893 899 902 901 897 895 900 904 901 901 906 905 903 904 905 906 909 909 907 909 914 914 912 912 916 918 912 895 883 885 889 889 893 899 902 904 904 902 898 894 890 887 886 884 885 893 896 885 874 869 867 866 864 862 862 859 854 851 852 851 848 845 843 841
840 844 845 845 862 884 883 881 882 872 870 881 885 888 889 886 893 893 887 897 905 899 899 900 897 897 896 894 896 899 904 907 906 906 908 907 907 908 908 909 912 910 908 912 917 919 920 917 915 920 912 890 880 890 895 889 885 890 899 905 903 900 897 891 886 884 884 889 897 901 896 883 874 872 870 866 865 865 865 861 856 855 855 853 851 848 845 843